User: anonymous   Login
Location: Bush Observatory
(40.2653°N, 94.3194°W)
Time: 11:18:23
(UTC-05:00)
Language:

Cosmos 1933 Rocket - Orbit

View from above orbital plane
View from above orbital plane
View from above satellite
View from above satellite

Ground track
Ground track

The orbit data is extracted from the following two-line orbital elements,

1 18959U 88020B   16180.20652412  .00000062  00000-0  46530-5 0  9999
2 18959  82.5377 241.5665 0015851 220.5001 139.5036 14.83283193528100
Epoch (UTC): 28 June 2016 04:57:23
Eccentricity: 0.0015851
inclination: 82.5377°
perigee height: 608 km
apogee height: 630 km
right ascension of ascending node: 241.5665°
argument of perigee: 220.5001°
revolutions per day: 14.83283193
mean anomaly at epoch: 139.5036°
orbit number at epoch: 52810

The dashed part of the orbit path shows where the satellite is in the earth's shadow,  

DLR